Location: Madrid
(40.4000°N, 3.6830°W)
Time: 15:56:58
(UTC+02:00)

ISS - Pass Details

Date: 10 March 2021
Orbit: 418 x 422 km, 51.6° (Epoch: 16 April)

Event Time Altitude Azimuth Distance (km) Brightness Sun altitude
Exits shadow 05:45:33 27° 358° (N) 848 -2.2 -21.4°
Maximum altitude 05:46:23 31° 27° (NNE) 769 -2.1 -21.3°
Drops below altitude 10° 05:49:19 11° 91° (E) 1,459 0.1 -20.7°
Sets 05:51:39 0° 103° (ESE) 2,355 1.2 -20.3°
